GW6757 Weather Reports


Display with metric or nautical units.
time (UTC)temp
F
wind
direction
speed
MPH
gust
MPH
rain 1hr
in
rain 24hr
in
rain mn
in
humidity
%
barometer
mb
20260508013045 80 69 6.0 8.0 0.00 0.00 0.00 88 1016.4
20260508012542 80 72 6.0 7.0 0.00 0.00 0.00 88 1016.2
20260508012040 80 76 5.0 7.0 0.00 0.00 0.00 88 1016.3
20260508011538 80 77 5.0 7.0 0.00 0.00 0.00 88 1015.9
20260508011035 80 73 7.0 8.0 0.00 0.00 0.00 88 1016.2
20260508010531 80 70 5.0 7.0 0.00 0.00 0.00 88 1016.1
20260508010029 80 80 4.0 9.0 0.00 0.00 0.00 88 1016.2
20260508005525 80 70 6.0 8.0 0.00 0.00 0.00 88 1016.0
20260508005022 80 82 6.0 8.0 0.00 0.00 0.00 88 1015.8
20260508004518 80 77 7.0 8.0 0.00 0.00 0.00 88 1016.0
20260508004015 80 71 6.0 9.0 0.00 0.00 0.00 88 1016.0
20260508003512 81 71 7.0 9.0 0.00 0.00 0.00 87 1015.8
20260508003009 81 73 9.0 10.0 0.00 0.00 0.00 87 1015.8
20260508002505 80 79 8.0 9.0 0.00 0.00 0.00 87 1015.8
20260508002003 81 65 6.0 9.0 0.00 0.00 0.00 87 1016.0
20260508001458 80 69 8.0 8.0 0.00 0.00 0.00 87 1015.8
20260508000955 80 74 6.0 8.0 0.00 0.00 0.00 87 1015.7
20260508000450 81 66 4.0 8.0 0.00 0.00 0.00 87 1015.7
20260507235948 81 83 5.0 8.0 0.00 0.00 0.00 87 1015.7
20260507235444 81 69 6.0 8.0 0.00 0.00 0.00 86 1015.4
20260507234942 81 78 6.0 9.0 0.00 0.00 0.00 86 1015.7
20260507234438 81 70 7.0 10.0 0.00 0.00 0.00 86 1015.5
20260507233935 81 77 6.0 9.0 0.00 0.00 0.00 86 1015.5
20260507233432 81 77 4.0 10.0 0.00 0.00 0.00 86 1015.6
20260507232930 81 77 6.0 8.0 0.00 0.00 0.00 85 1015.5
20260507232426 81 80 6.0 8.0 0.00 0.00 0.00 85 1015.3
20260507231924 81 87 5.0 8.0 0.00 0.00 0.00 84 1015.4
20260507231420 81 76 6.0 8.0 0.00 0.00 0.00 84 1015.4
20260507230917 82 75 6.0 9.0 0.00 0.00 0.00 84 1015.3
20260507230415 82 73 6.0 9.0 0.00 0.00 0.00 84 1015.4
20260507225914 82 80 6.0 9.0 0.00 0.00 0.00 83 1015.2
20260507225411 82 69 5.0 9.0 0.00 0.00 0.00 83 1015.2
20260507224907 82 77 8.0 11.0 0.00 0.00 0.00 83 1015.2
20260507224403 82 71 9.0 9.0 0.00 0.00 0.00 83 1015.2
20260507223900 82 70 7.0 9.0 0.00 0.00 0.00 82 1015.1
20260507223356 82 66 7.0 9.0 0.00 0.00 0.00 82 1015.1
20260507222854 83 71 8.0 9.0 0.00 0.00 0.00 82 1015.0
20260507222349 83 70 6.0 10.0 0.00 0.00 0.00 82 1015.1
20260507221846 83 59 5.0 8.0 0.00 0.00 0.00 82 1015.2
20260507221343 83 60 7.0 9.0 0.00 0.00 0.00 81 1015.2
20260507220839 83 50 4.0 8.0 0.00 0.00 0.00 81 1015.1
20260507220337 83 52 6.0 11.0 0.00 0.00 0.00 81 1015.2
20260507215833 83 75 8.0 10.0 0.00 0.00 0.00 81 1015.1
20260507215330 83 66 7.0 10.0 0.00 0.00 0.00 80 1015.1
20260507214827 84 76 6.0 9.0 0.00 0.00 0.00 80 1015.0
20260507214326 83 75 7.0 11.0 0.00 0.00 0.00 80 1014.9
20260507213826 84 65 4.0 9.0 0.00 0.00 0.00 80 1014.9
20260507213323 84 74 4.0 11.0 0.00 0.00 0.00 79 1015.0
20260507212820 84 91 4.0 8.0 0.00 0.00 0.00 79 1015.1
20260507212316 84 80 4.0 7.0 0.00 0.00 0.00 79 1015.0
20260507211812 84 65 5.0 9.0 0.00 0.00 0.00 79 1014.9
20260507211309 85 88 3.0 7.0 0.00 0.00 0.00 79 1014.9
20260507210806 84 97 3.0 6.0 0.00 0.00 0.00 80 1015.1
20260507210303 84 71 6.0 10.0 0.00 0.00 0.00 80 1015.1
20260507205759 84 67 10.0 11.0 0.00 0.00 0.00 79 1015.1
20260507205256 84 71 8.0 10.0 0.00 0.00 0.00 79 1015.0
20260507204752 84 92 4.0 8.0 0.00 0.00 0.00 81 1015.1
20260507204250 83 65 6.0 11.0 0.00 0.00 0.00 80 1015.1
20260507203748 84 88 5.0 10.0 0.00 0.00 0.00 81 1015.2
20260507203245 83 63 6.0 12.0 0.00 0.00 0.00 80 1015.1
20260507202741 84 75 6.0 10.0 0.00 0.00 0.00 80 1015.1
20260507202237 84 71 5.0 8.0 0.00 0.00 0.00 81 1015.3
20260507201732 83 75 5.0 10.0 0.00 0.00 0.00 81 1014.9
20260507201229 83 81 5.0 8.0 0.00 0.00 0.00 79 1015.1
20260507200726 85 96 5.0 11.0 0.00 0.00 0.00 80 1015.2
20260507200222 84 76 8.0 12.0 0.00 0.00 0.00 79 1015.2
20260507195718 84 77 6.0 10.0 0.00 0.00 0.00 79 1015.1
20260507195216 84 79 4.0 9.0 0.00 0.00 0.00 80 1015.3
20260507194712 85 80 6.0 9.0 0.00 0.00 0.00 79 1015.4
20260507194209 85 110 3.0 10.0 0.00 0.00 0.00 79 1015.3
20260507193705 85 87 6.0 9.0 0.00 0.00 0.00 80 1015.2
20260507193202 85 87 7.0 10.0 0.00 0.00 0.00 80 1015.3
20260507192658 84 108 5.0 9.0 0.00 0.00 0.00 80 1015.3
20260507192155 85 89 7.0 10.0 0.00 0.00 0.00 80 1015.4
20260507191651 84 85 6.0 11.0 0.00 0.00 0.00 82 1015.4
20260507191148 83 79 9.0 13.0 0.00 0.00 0.00 81 1015.5
20260507190645 83 81 8.0 13.0 0.00 0.00 0.00 80 1015.3
20260507190144 84 77 9.0 11.0 0.00 0.00 0.00 81 1015.5
20260507185642 84 80 9.0 14.0 0.00 0.00 0.00 81 1015.5
20260507185138 84 82 11.0 15.0 0.00 0.00 0.00 80 1015.7
20260507184636 84 77 6.0 13.0 0.00 0.00 0.00 81 1015.6
20260507184134 84 77 10.0 15.0 0.00 0.00 0.00 81 1015.8
20260507183630 84 70 12.0 14.0 0.00 0.00 0.00 81 1015.8
20260507183127 84 82 8.0 11.0 0.00 0.00 0.00 82 1016.1
20260507182623 84 65 12.0 13.0 0.00 0.00 0.00 81 1016.0
20260507182119 83 80 11.0 15.0 0.00 0.00 0.00 82 1016.0
20260507181616 83 69 9.0 14.0 0.00 0.00 0.00 82 1016.2
20260507181112 83 74 9.0 15.0 0.00 0.00 0.00 81 1016.1
20260507180609 84 85 9.0 14.0 0.00 0.00 0.00 82 1016.1
20260507180106 83 85 9.0 14.0 0.00 0.00 0.00 81 1016.3
20260507175602 84 94 6.0 12.0 0.00 0.00 0.00 81 1016.3
20260507175100 83 74 7.0 14.0 0.00 0.00 0.00 82 1016.6
20260507174557 83 69 10.0 14.0 0.00 0.00 0.00 80 1016.5
20260507174054 84 87 7.0 13.0 0.00 0.00 0.00 81 1016.6
20260507173551 83 74 9.0 15.0 0.00 0.00 0.00 81 1016.4
20260507173048 84 72 8.0 13.0 0.00 0.00 0.00 81 1016.5
20260507172544 83 74 7.0 11.0 0.00 0.00 0.00 81 1016.5
20260507172042 83 74 10.0 15.0 0.00 0.00 0.00 81 1016.5
20260507171536 83 83 10.0 12.0 0.00 0.00 0.00 81 1016.6
20260507171034 83 73 12.0 16.0 0.00 0.00 0.00 80 1016.6
20260507170530 84 82 6.0 13.0 0.00 0.00 0.00 79 1016.6
20260507170028 85 70 5.0 10.0 0.00 0.00 0.00 79 1016.9
20260507165523 84 92 7.0 12.0 0.00 0.00 0.00 80 1016.8
20260507165020 84 85 11.0 16.0 0.00 0.00 0.00 79 1016.8
20260507164516 85 73 10.0 12.0 0.00 0.00 0.00 79 1017.0
20260507164013 85 105 8.0 11.0 0.00 0.00 0.00 79 1017.0
20260507163510 85 108 6.0 11.0 0.00 0.00 0.00 79 1017.1
20260507163009 84 87 10.0 13.0 0.00 0.00 0.00 79 1017.0
20260507162503 85 86 8.0 11.0 0.00 0.00 0.00 79 1017.0
20260507162000 84 76 8.0 13.0 0.00 0.00 0.00 79 1017.0
20260507161456 85 69 11.0 14.0 0.00 0.00 0.00 79 1017.0
20260507160954 85 94 6.0 11.0 0.00 0.00 0.00 79 1017.3
20260507160449 85 79 6.0 11.0 0.00 0.00 0.00 79 1017.0
20260507155945 85 87 10.0 11.0 0.00 0.00 0.00 79 1017.3
20260507155441 84 84 6.0 13.0 0.00 0.00 0.00 80 1017.4
20260507154939 85 70 5.0 13.0 0.00 0.00 0.00 80 1017.5
20260507154435 84 89 5.0 13.0 0.00 0.00 0.00 80 1017.4
20260507153932 84 83 7.0 11.0 0.00 0.00 0.00 80 1017.5
20260507153429 84 76 10.0 14.0 0.00 0.00 0.00 79 1017.5
20260507152925 84 79 7.0 11.0 0.00 0.00 0.00 80 1017.6
20260507152421 84 96 5.0 12.0 0.00 0.00 0.00 79 1017.7
20260507151917 84 78 9.0 14.0 0.00 0.00 0.00 79 1017.6
20260507151414 84 102 3.0 11.0 0.00 0.00 0.00 79 1017.6
20260507150911 84 89 6.0 12.0 0.00 0.00 0.00 79 1017.8
20260507150408 84 78 8.0 11.0 0.00 0.00 0.00 79 1017.7
20260507145904 84 72 7.0 11.0 0.00 0.00 0.00 79 1017.6
20260507145400 85 83 6.0 11.0 0.00 0.00 0.00 78 1017.6
20260507144857 85 66 4.0 10.0 0.00 0.00 0.00 79 1017.4
20260507144355 84 83 4.0 9.0 0.00 0.00 0.00 79 1017.4
20260507143851 84 83 8.0 13.0 0.00 0.00 0.00 79 1017.4
20260507143348 84 73 6.0 13.0 0.00 0.00 0.00 78 1017.4
20260507142845 85 93 6.0 9.0 0.00 0.00 0.00 79 1017.4
20260507142341 84 95 6.0 14.0 0.00 0.00 0.00 78 1017.6
20260507141838 85 114 5.0 9.0 0.00 0.00 0.00 78 1017.4
20260507141334 85 99 6.0 14.0 0.00 0.00 0.00 79 1017.4
20260507140831 85 88 6.0 11.0 0.00 0.00 0.00 78 1017.4
20260507140328 84 108 6.0 13.0 0.00 0.00 0.00 79 1017.2
20260507135826 85 93 4.0 9.0 0.00 0.00 0.00 79 1017.2
20260507135322 85 102 6.0 10.0 0.00 0.00 0.00 79 1017.3
20260507134819 85 95 7.0 12.0 0.00 0.00 0.00 78 1017.2
20260507134316 85 110 5.0 7.0 0.00 0.00 0.00 79 1017.3
20260507133811 85 113 8.0 9.0 0.00 0.00 0.00 79 1017.3
20260507133308 84 70 6.0 8.0 0.00 0.00 0.00 80 1017.3
20260507132806 84 91 5.0 9.0 0.00 0.00 0.00 81 1017.2
20260507132306 84 95 5.0 13.0 0.00 0.00 0.00 80 1017.2
20260507131759 84 84 6.0 9.0 0.00 0.00 0.00 81 1017.1
20260507131256 84 83 5.0 9.0 0.00 0.00 0.00 81 1017.2
20260507130753 84 88 4.0 7.0 0.00 0.00 0.00 82 1017.2
20260507130250 84 87 3.0 11.0 0.00 0.00 0.00 82 1017.0
20260507125749 84 93 5.0 11.0 0.00 0.00 0.00 83 1017.0
20260507125246 84 119 1.0 10.0 0.00 0.00 0.00 83 1016.9
20260507124743 84 69 3.0 7.0 0.00 0.00 0.00 84 1017.0
20260507124239 83 69 4.0 9.0 0.00 0.00 0.00 85 1016.9
20260507123738 83 106 5.0 9.0 0.00 0.00 0.00 85 1016.6
20260507123235 82 92 3.0 4.0 0.00 0.00 0.00 86 1016.8
20260507122730 82 97 1.0 6.0 0.00 0.00 0.00 86 1016.7
20260507122227 82 102 3.0 5.0 0.00 0.00 0.00 87 1016.8
20260507121722 82 120 5.0 7.0 0.00 0.00 0.00 87 1016.6
20260507121218 82 102 2.0 5.0 0.00 0.00 0.00 88 1016.6
20260507120715 81 80 3.0 10.0 0.00 0.00 0.00 88 1016.5
20260507120212 82 119 2.0 6.0 0.00 0.00 0.00 88 1016.4
20260507115708 82 132 6.0 6.0 0.00 0.00 0.00 89 1016.6
20260507115204 81 73 2.0 6.0 0.00 0.00 0.00 89 1016.4
20260507114659 82 105 2.0 8.0 0.00 0.00 0.00 89 1016.4
20260507114157 81 108 4.0 4.0 0.00 0.00 0.00 90 1016.5
20260507113654 81 84 3.0 4.0 0.00 0.00 0.00 91 1016.4
20260507113151 80 105 4.0 6.0 0.00 0.00 0.00 90 1016.1
20260507112649 80 87 3.0 5.0 0.00 0.00 0.00 91 1016.2
20260507112145 80 94 2.0 4.0 0.00 0.00 0.00 91 1016.0
20260507111643 79 41 1.0 6.0 0.00 0.00 0.00 92 1015.9
20260507111139 79 119 4.0 5.0 0.00 0.00 0.00 92 1016.0
20260507110635 78 124 4.0 4.0 0.00 0.00 0.00 92 1016.2
20260507110132 78 110 4.0 4.0 0.00 0.00 0.00 92 1016.0
20260507105629 78 92 4.0 4.0 0.00 0.00 0.00 92 1016.0
20260507105125 78 66 1.0 6.0 0.00 0.00 0.00 92 1015.9
20260507104622 78 95 1.0 6.0 0.00 0.00 0.00 92 1016.0
20260507104119 78 124 4.0 5.0 0.00 0.00 0.00 92 1015.9
20260507103615 78 131 3.0 6.0 0.00 0.00 0.00 92 1015.8
20260507103112 77 130 3.0 5.0 0.00 0.00 0.00 92 1015.7
20260507102608 77 104 3.0 5.0 0.00 0.00 0.00 92 1015.6
20260507102105 77 127 3.0 6.0 0.00 0.00 0.00 92 1015.6
20260507101601 77 126 3.0 6.0 0.00 0.00 0.00 92 1015.5
20260507101057 77 129 5.0 6.0 0.00 0.00 0.00 92 1015.7
20260507100554 77 125 2.0 5.0 0.00 0.00 0.00 92 1015.6
20260507100052 77 124 2.0 4.0 0.00 0.00 0.00 92 1015.7
20260507095549 78 109 2.0 6.0 0.00 0.00 0.00 92 1015.8
20260507095046 78 127 4.0 6.0 0.00 0.00 0.00 92 1015.6
20260507094542 78 114 4.0 6.0 0.00 0.00 0.00 92 1015.7
20260507094039 78 96 2.0 5.0 0.00 0.00 0.00 92 1015.5
20260507093537 78 101 3.0 6.0 0.00 0.00 0.00 92 1015.5
20260507093036 78 84 3.0 4.0 0.00 0.00 0.00 92 1015.6
20260507092531 78 91 1.0 4.0 0.00 0.00 0.00 92 1015.3
20260507092028 78 109 2.0 5.0 0.00 0.00 0.00 92 1015.5
20260507091525 78 126 2.0 6.0 0.00 0.00 0.00 92 1015.5
20260507091021 78 104 2.0 4.0 0.00 0.00 0.00 92 1015.4
20260507090517 78 108 4.0 5.0 0.00 0.00 0.00 92 1015.5
20260507090014 78 70 2.0 5.0 0.00 0.00 0.00 92 1015.4
20260507085511 78 133 3.0 4.0 0.00 0.00 0.00 92 1015.6
20260507085008 78 110 0.0 6.0 0.00 0.00 0.00 92 1015.5
20260507084504 78 118 2.0 6.0 0.00 0.00 0.00 92 1015.5
20260507084002 78 121 3.0 5.0 0.00 0.00 0.00 92 1015.5
20260507083458 78 119 3.0 4.0 0.00 0.00 0.00 92 1015.4
20260507082954 78 109 2.0 5.0 0.00 0.00 0.00 92 1015.5
20260507082450 78 107 2.0 5.0 0.00 0.00 0.00 92 1015.5
20260507081947 78 99 2.0 5.0 0.00 0.00 0.00 92 1015.3
20260507081443 78 103 3.0 4.0 0.00 0.00 0.00 92 1015.3
20260507080941 78 73 0.0 2.0 0.00 0.00 0.00 92 1015.3
20260507080436 78 109 2.0 6.0 0.00 0.00 0.00 92 1015.4
20260507075932 78 97 2.0 4.0 0.00 0.00 0.00 92 1015.3
20260507075428 78 128 3.0 6.0 0.00 0.00 0.00 92 1015.1
20260507074925 78 137 4.0 10.0 0.00 0.00 0.00 92 1015.1
20260507074422 78 119 4.0 6.0 0.00 0.00 0.00 92 1015.1
20260507073920 78 128 4.0 6.0 0.00 0.00 0.00 92 1015.0
20260507073416 78 85 4.0 5.0 0.00 0.00 0.00 92 1015.2
20260507072913 78 104 2.0 6.0 0.00 0.00 0.00 92 1015.4
20260507072411 78 129 5.0 9.0 0.00 0.00 0.00 92 1015.2
20260507071908 78 91 2.0 6.0 0.00 0.00 0.00 92 1015.2
20260507071405 78 116 4.0 6.0 0.00 0.00 0.00 92 1015.1
20260507070901 78 130 3.0 6.0 0.00 0.00 0.00 92 1015.4
20260507070359 78 102 4.0 6.0 0.00 0.00 0.00 92 1015.4
20260507065855 78 103 4.0 5.0 0.00 0.00 0.00 92 1015.5
20260507065352 78 100 2.0 7.0 0.00 0.00 0.00 92 1015.6
20260507064849 78 106 4.0 6.0 0.00 0.00 0.00 91 1015.3
20260507064347 78 108 3.0 6.0 0.00 0.00 0.00 91 1015.5
20260507063845 78 121 2.0 7.0 0.00 0.00 0.00 91 1015.6
20260507063342 78 122 6.0 6.0 0.00 0.00 0.00 91 1015.7
20260507062838 78 82 2.0 6.0 0.00 0.00 0.00 92 1015.9
20260507062335 78 123 4.0 10.0 0.00 0.00 0.00 92 1016.0
20260507061833 78 110 2.0 7.0 0.00 0.00 0.00 92 1016.0
20260507061331 79 96 2.0 6.0 0.00 0.00 0.00 91 1016.1
20260507060829 79 99 3.0 4.0 0.00 0.00 0.00 91 1016.1
20260507060326 79 78 3.0 8.0 0.00 0.00 0.00 91 1016.2
20260507055822 79 97 3.0 8.0 0.00 0.00 0.00 91 1016.1
20260507055318 79 95 2.0 6.0 0.00 0.00 0.00 91 1016.0
20260507054814 79 99 5.0 6.0 0.00 0.00 0.00 91 1016.1
20260507054310 79 86 2.0 8.0 0.00 0.00 0.00 91 1016.3
20260507053808 79 98 4.0 7.0 0.00 0.00 0.00 91 1016.4
20260507053306 79 100 4.0 6.0 0.00 0.00 0.00 91 1016.2
20260507052805 79 105 4.0 6.0 0.00 0.00 0.00 91 1016.4
20260507052300 79 98 4.0 8.0 0.00 0.00 0.00 91 1016.5
20260507051759 79 104 6.0 8.0 0.00 0.00 0.00 91 1016.4
20260507051255 79 67 3.0 11.0 0.00 0.00 0.00 91 1016.6
20260507050752 79 102 3.0 6.0 0.00 0.00 0.00 91 1016.7
20260507050249 80 97 4.0 8.0 0.00 0.00 0.00 91 1016.6
20260507045746 80 75 4.0 9.0 0.00 0.00 0.00 91 1016.7
20260507045242 80 47 2.0 7.0 0.00 0.00 0.00 91 1016.7
20260507044739 80 102 3.0 9.0 0.00 0.00 0.00 91 1016.8
20260507044235 80 93 3.0 7.0 0.00 0.00 0.00 91 1016.7
20260507043732 80 92 5.0 9.0 0.00 0.00 0.00 91 1016.6
20260507043229 80 87 4.0 9.0 0.00 0.00 0.00 91 1016.8
20260507042725 80 74 5.0 9.0 0.00 0.00 0.00 91 1016.9
20260507042220 80 85 3.0 8.0 0.00 0.00 0.00 91 1016.8
20260507041718 80 62 5.0 7.0 0.00 0.00 0.00 91 1016.9
20260507041214 80 82 3.0 7.0 0.00 0.00 0.00 91 1017.0
20260507040711 80 89 6.0 7.0 0.00 0.00 0.00 91 1017.0
20260507040207 80 79 6.0 6.0 0.00 0.00 0.00 90 1017.1
20260507035703 80 85 4.0 9.0 0.00 0.21 0.21 91 1017.4
20260507035159 80 80 4.0 7.0 0.00 0.21 0.21 90 1017.1
20260507034656 80 96 3.0 6.0 0.00 0.21 0.21 90 1017.2
20260507034154 80 86 3.0 5.0 0.00 0.21 0.21 90 1017.3
20260507033652 80 74 3.0 7.0 0.00 0.21 0.21 90 1017.5
20260507033149 80 70 5.0 7.0 0.00 0.21 0.21 90 1017.5
20260507032646 80 87 4.0 6.0 0.00 0.21 0.21 90 1017.5
20260507032142 80 87 6.0 7.0 0.00 0.21 0.21 90 1017.5
20260507031639 80 79 5.0 7.0 0.00 0.21 0.21 90 1017.6
20260507031135 80 77 5.0 10.0 0.00 0.21 0.21 90 1017.6
20260507030632 80 75 5.0 8.0 0.00 0.21 0.21 90 1017.6
20260507030130 80 83 5.0 9.0 0.00 0.21 0.21 90 1017.4
20260507025627 80 83 6.0 7.0 0.00 0.21 0.21 90 1017.7
20260507025124 80 73 9.0 10.0 0.00 0.21 0.21 90 1017.6
20260507024622 80 61 8.0 10.0 0.00 0.21 0.21 90 1017.6
20260507024119 80 77 7.0 7.0 0.00 0.21 0.21 90 1017.5
20260507023614 80 73 7.0 8.0 0.00 0.21 0.21 90 1017.6
20260507023112 80 75 6.0 8.0 0.00 0.21 0.21 90 1017.3
20260507022609 80 74 7.0 8.0 0.00 0.21 0.21 90 1017.4
20260507022104 80 66 7.0 9.0 0.00 0.21 0.21 90 1017.2
20260507021601 80 60 7.0 9.0 0.00 0.21 0.21 90 1017.4
20260507021057 80 63 5.0 9.0 0.00 0.21 0.21 91 1017.3
20260507020555 80 75 7.0 7.0 0.00 0.21 0.21 91 1017.3
20260507020051 80 58 5.0 8.0 0.00 0.21 0.21 91 1017.5
20260507015550 80 42 6.0 8.0 0.00 0.21 0.21 91 1017.4
20260507015046 80 57 6.0 9.0 0.00 0.21 0.21 91 1017.3
20260507014543 80 53 6.0 9.0 0.00 0.21 0.21 91 1017.1
20260507014039 80 56 6.0 7.0 0.00 0.21 0.21 91 1017.2
20260507013536 80 46 6.0 9.0 0.00 0.21 0.21 91 1017.1